Location: Arroyo de Valdeoliva
(40.1604°N, 4.9878°W)
Time: 07:44:20
(UTC+00:00)

Cosmos 1825 Rocket - Pass Details

Date: 23 March 2026
Orbit: 596 x 624 km, 82.5° (Epoch: 18 April)

Event Time Altitude Azimuth Distance (km) Brightness Sun altitude
Rises 04:38:46 0° 359° (N) 2,886 7.2 -19.6°
Reaches altitude 10° 04:41:05 10° 6° (N) 1,972 6.4 -19.2°
Maximum altitude 04:45:15 44° 78° (ENE) 847 4.7 -18.4°
Drops below altitude 10° 04:49:22 10° 151° (SSE) 1,941 6.2 -17.6°
Sets 04:51:38 0° 158° (SSE) 2,836 7.0 -17.2°
